Weather Roundup
Issued by NWS

Home | Current Version | Previous Version | Graphics & Text | Print | Product List | Glossary Off
Versions: 1 2 3 4 5 6 7 8 9 10 11 12 13 14 15 16 17 18 19 20 21 22 23 24 25 26 27 28 29 30 31 32 33 34 35 36 37 38 39 40 41 42 43 44 45 46 47 48 49 50

000
NZUS93 KARX 100510
HRRWXR

CURRENT HOURLY OBSERVATIONS ACROSS
MUCH OF THE UPPER MISSISSIPPI VALLEY
NATIONAL WEATHER SERVICE LA CROSSE WI
1200 AM CDT THU JUL 10 2014


...SOUTHEAST MINNESOTA...


CITY           SKY/WX    TMP DP  RH WIND       PRES   REMARKS
ROCHESTER      CLEAR     61  56  83 S6        30.06R
ROCHESTER/MAYO FAIR      65  54  68 SE8       30.04S
WINONA         CLEAR     61  59  94 CALM      30.04S
AUSTIN         CLEAR     61  57  88 CALM      30.04R
ALBERT LEA     PTCLDY    61  57  88 CALM      30.03S
DODGE CENTER   CLEAR     63  57  82 SE3       30.04S
PRESTON        CLEAR     64  57  78 SE5       30.06S
OWATONNA       CLEAR     61  57  88 SE3       30.03S
FARIBAULT      CLEAR     64  54  68 SE3       30.03S
$$

...ELSEWHERE IN MINNESOTA...


CITY           SKY/WX    TMP DP  RH WIND       PRES   REMARKS
MINNEAPOLIS    CLEAR     67  56  67 SE6       30.02R
INTNL FALLS    CLEAR     51  49  92 CALM      30.00S
DULUTH         CLEAR     58  49  72 CALM      30.03S
RED WING       CLEAR     59  57  94 CALM      30.02S
REDWOOD FALLS  CLEAR     66  52  60 E3        30.01S
MANKATO        CLEAR     66  54  63 SE7       30.02R
WORTHINGTON    CLEAR     63  55  77 SE6       30.05R
FAIRMONT       MOCLDY    64  54  68 CALM      30.03R
$$

...SOUTHWEST WISCONSIN...


CITY           SKY/WX    TMP DP  RH WIND       PRES   REMARKS
LA CROSSE      CLEAR     63  57  81 SE7       30.04R
PRAIRIE DU CHI CLEAR     61  58  90 E3        30.05R
BOSCOBEL       CLEAR     57  55  93 CALM      30.06R
LONE ROCK      CLEAR     61  55  81 CALM      30.06R
PLATTEVILLE    CLEAR     63  56  78 E7        30.08R
FORT MC COY    CLEAR     54  52  94 CALM      30.07R
CAMP DOUGLAS   CLEAR     54  54 100 E2        30.07R FOG
VIROQUA        FAIR      60  54  79 SE5       30.07R
WIS DELLS      CLEAR     57  52  84 CALM      30.07S
$$

...ELSEWHERE IN WISCONSIN...


CITY           SKY/WX    TMP DP  RH WIND       PRES   REMARKS
MILWAUKEE      NOT AVBL
MADISON        CLEAR     57  54  89 CALM      30.07R
GREEN BAY      CLEAR     56  54  93 CALM      30.07R
EAU CLAIRE     CLEAR     63  56  78 SE3       30.04R
BLACK RVR FLS  FAIR      53  53  99 CALM      30.05S
MEDFORD        CLEAR     51  50  96 CALM      30.08R
WAUSAU         CLEAR     55  51  86 CALM      30.06S
WIS RAPIDS     CLEAR     55  52  89 CALM      30.08R
MARSHFIELD     CLEAR     57  52  83 CALM      30.07R
RICE LAKE      CLEAR     57  53  85 CALM      30.06S
$$

...NORTHEAST IOWA...


CITY           SKY/WX    TMP DP  RH WIND       PRES   REMARKS
WATERLOO       CLEAR     65  58  78 S3        30.03R
DUBUQUE        NOT AVBL
DECORAH          N/A    N/A N/A N/A MISG        N/A
MASON CITY     CLEAR     62  60  93 S3        30.05R
CHARLES CITY   PTCLDY    63  59  88 E6        30.05R
OELWEIN        CLEAR     63  63 100 SE7       30.06R
$$

...ELSEWHERE IN IOWA...


CITY           SKY/WX    TMP DP  RH WIND       PRES   REMARKS
DES MOINES     PTCLDY    69  60  73 S7        30.04S
IOWA CITY      CLEAR     64  59  83 CALM      30.07R
FORT DODGE     CLOUDY    64  63  94 S3        30.04S
MARSHALLTOWN   CLEAR     66  59  78 S6        30.04R
CEDAR RAPIDS   CLEAR     62  59  90 S3        30.05R
$$

...NORTHERN ILLINOIS...


CITY           SKY/WX    TMP DP  RH WIND       PRES   REMARKS
CHICAGO-OHARE  CLEAR     65  54  67 CALM      30.06R
DUPAGE         CLEAR     61  53  75 CALM      30.07R
CHICAGO-MIDWAY CLEAR     68  60  75 SE3       30.06R
MOLINE         NOT AVBL
ROCKFORD       CLEAR     60  55  83 CALM      30.10R
STERLING       CLEAR     59  54  82 CALM      30.08R
PEORIA         CLEAR     65  58  78 CALM      30.08R
$$

NOTE: "FAIR" INDICATES FEW OR NO CLOUDS BELOW 12,000 FEET WITH NO
SIGNIFICANT WEATHER AND/OR OBSTRUCTIONS TO VISIBILITY. WIND
SPEEDS ARE IN MILES-PER-HOUR.



USA.gov is the U.S. government's official web portal to all federal, state and local government web resources and services.